TimeCST,TemperatureF,Dew PointF,Humidity,Sea Level PressureIn,VisibilityMPH,Wind Direction,Wind SpeedMPH,Gust SpeedMPH,PrecipitationIn,Events,Conditions,WindDirDegrees,DateUTC
12:54 AM,24.1,12.9,62,30.19,10.0,Calm,Calm,-,N/A,,Clear,0,2014-01-18 06:54:00
1:54 AM,24.1,14.0,65,30.19,10.0,Calm,Calm,-,N/A,,Partly Cloudy,0,2014-01-18 07:54:00
2:54 AM,23.0,14.0,68,30.19,10.0,Calm,Calm,-,N/A,,Partly Cloudy,0,2014-01-18 08:54:00
3:54 AM,24.1,12.9,62,30.17,10.0,SSW,8.1,-,N/A,,Partly Cloudy,210,2014-01-18 09:54:00
4:54 AM,26.1,15.1,63,30.16,10.0,SSW,8.1,-,N/A,,Partly Cloudy,200,2014-01-18 10:54:00
5:54 AM,25.0,16.0,69,30.15,10.0,South,6.9,-,N/A,,Mostly Cloudy,190,2014-01-18 11:54:00
6:54 AM,25.0,12.9,60,30.14,10.0,South,8.1,-,N/A,,Partly Cloudy,190,2014-01-18 12:54:00
7:54 AM,28.9,12.9,51,30.13,10.0,South,11.5,-,N/A,,Scattered Clouds,170,2014-01-18 13:54:00
8:54 AM,34.0,14.0,44,30.11,10.0,SSW,13.8,19.6,N/A,,Mostly Cloudy,200,2014-01-18 14:54:00
9:54 AM,39.0,15.1,38,30.08,10.0,SSW,16.1,21.9,N/A,,Scattered Clouds,200,2014-01-18 15:54:00
10:54 AM,46.0,15.1,29,30.04,10.0,SSW,19.6,39.1,N/A,,Mostly Cloudy,200,2014-01-18 16:54:00
11:54 AM,50.0,16.0,26,29.96,10.0,SW,23.0,31.1,N/A,,Scattered Clouds,220,2014-01-18 17:54:00
12:54 PM,52.0,17.1,25,29.90,10.0,SW,24.2,41.4,N/A,,Partly Cloudy,220,2014-01-18 18:54:00
1:54 PM,53.1,21.0,29,29.85,10.0,SW,27.6,39.1,N/A,,Partly Cloudy,220,2014-01-18 19:54:00
2:54 PM,54.0,23.0,30,29.83,10.0,SSW,24.2,35.7,N/A,,Scattered Clouds,210,2014-01-18 20:54:00
3:54 PM,55.0,23.0,29,29.84,10.0,SW,18.4,33.4,N/A,,Scattered Clouds,220,2014-01-18 21:54:00
4:54 PM,54.0,25.0,33,29.86,10.0,SSW,15.0,29.9,N/A,,Mostly Cloudy,210,2014-01-18 22:54:00
5:54 PM,53.1,27.0,37,29.87,10.0,SSW,12.7,23.0,N/A,,Mostly Cloudy,210,2014-01-18 23:54:00
6:54 PM,50.0,28.0,43,29.88,10.0,SW,8.1,-,N/A,,Scattered Clouds,220,2014-01-19 00:54:00
7:54 PM,48.9,28.9,46,29.91,10.0,West,8.1,-,N/A,,Mostly Cloudy,280,2014-01-19 01:54:00
8:54 PM,48.0,30.0,50,29.92,10.0,West,3.5,-,N/A,,Mostly Cloudy,260,2014-01-19 02:54:00
9:54 PM,48.9,26.1,41,29.93,10.0,NW,13.8,21.9,N/A,,Mostly Cloudy,320,2014-01-19 03:54:00
10:54 PM,46.9,25.0,42,29.94,10.0,WNW,13.8,-,N/A,,Partly Cloudy,300,2014-01-19 04:54:00
11:54 PM,46.0,24.1,42,29.96,10.0,WNW,11.5,-,N/A,,Clear,290,2014-01-19 05:54:00